Location: Borowce
(50.8255°N, 19.6209°E)
Time: 22:45:46
(UTC+00:00)

CENTAUR R/B - Pass Details

Date: 19 May 2025
Orbit: 645 x 1537 km, 63.4° (Epoch: 16 June)

Event Time Altitude Azimuth Distance (km) Brightness Sun altitude
Rises 19:32:23 0° 298° (WNW) 3,781 7.2 -8.3°
Reaches altitude 10° 19:35:07 10° 308° (NW) 2,962 6.7 -8.6°
Maximum altitude 19:41:37 34° 12° (NNE) 1,968 4.5 -9.3°
Drops below altitude 10° 19:49:17 10° 74° (ENE) 3,523 5.2 -10.1°
Sets 19:52:50 0° 84° (E) 4,590 5.7 -10.5°
